Location: Unspecified
(0.0000°N, 0.0000°E)
Time: 04:05:03
(UTC+00:00)

DMSP 5D-2 F-14 - Pass Details

Date: 09 June 2023
Orbit: 831 x 845 km, 98.9° (Epoch: 28 September)

Event Time Altitude Azimuth Distance (km) Brightness Sun altitude
Exits shadow 20:47:00 30° 299° (WNW) 1,460 6.3 -38.0°
Drops below altitude 10° 20:50:06 10° 325° (NW) 2,429 7.7 -38.6°
Sets 20:52:36 0° 333° (NNW) 3,361 8.5 -39.2°
